Wind_Speed
40 40 41 42 44 45 44 43 41 40 40 39 39 39 38 38 37 36 35 33 32 32 31 31 30 30 29 29 27 26 25 23 21 19 17 15 13 12 10 10 9 8 8 7 7 7 6 6 6
41 42 43 44 46 47 45 43 43 43 42 42 42 41 41 40 39 38 37 36 34 33 33 32 32 31 31 30 29 28 27 25 23 21 19 18 16 14 12 11 11 10 9 9 8 8 7 7 7
41 43 45 46 47 47 46 44 45 45 45 45 44 44 44 42 41 40 39 38 37 35 34 34 33 32 32 31 30 30 29 27 26 23 22 20 18 16 15 13 13 12 11 10 10 9 9 8 8
41 43 45 47 46 46 46 47 47 47 47 47 47 47 46 45 44 42 41 40 39 37 36 35 34 34 34 33 32 31 31 30 28 26 24 23 21 19 17 16 15 14 13 12 12 11 11 10 9
41 43 44 46 46 46 46 48 49 49 49 48 49 49 48 47 46 45 44 43 42 40 38 37 36 36 35 35 33 33 32 31 30 29 27 25 23 21 20 18 17 16 15 14 13 13 12 11 11
41 42 44 45 45 46 47 48 48 49 49 49 49 49 49 48 47 47 46 45 44 42 40 39 38 37 37 36 35 34 33 33 32 31 30 28 26 24 22 20 19 17 16 15 15 14 14 13 13
40 41 43 44 44 44 44 46 46 47 47 47 48 49 49 49 49 49 49 48 46 45 43 41 40 39 39 38 37 36 35 34 34 33 32 30 28 27 25 22 20 19 18 17 16 16 15 15 14
38 40 41 42 41 41 42 43 44 45 45 46 48 49 48 48 49 51 51 50 48 47 45 44 42 41 40 40 39 39 37 36 35 35 34 32 31 29 27 25 23 21 20 19 18 17 17 17 16
37 38 38 38 39 38 39 41 42 44 44 45 47 49 49 49 50 51 52 52 51 49 48 47 45 44 42 41 41 41 40 38 37 36 36 35 33 32 30 28 25 23 22 21 20 19 19 18 18
35 36 36 36 37 37 38 39 40 42 44 45 47 48 50 50 50 51 52 52 52 51 50 49 48 46 45 43 43 42 42 41 39 38 38 37 35 34 32 30 28 26 24 22 21 21 21 20 20
33 33 33 33 34 35 36 37 38 40 42 44 45 47 49 49 49 51 52 53 52 52 51 51 50 49 47 46 44 44 44 43 41 40 40 39 37 36 35 33 30 28 27 25 24 23 22 22 22
31 31 31 31 31 32 33 34 36 38 40 42 44 46 48 49 49 50 52 53 52 52 52 52 51 50 49 47 46 46 46 45 44 42 42 41 40 38 36 35 33 31 29 28 27 25 24 24 24
29 29 28 29 30 30 31 32 33 34 38 40 41 43 46 47 48 50 52 54 53 53 53 52 52 51 49 47 47 48 48 47 46 45 44 43 42 41 39 37 35 33 31 30 29 28 26 26 26
27 27 27 27 28 29 29 29 29 29 33 36 38 40 43 43 45 48 50 52 54 53 53 53 53 52 52 50 49 48 48 49 48 46 46 45 44 42 41 40 38 36 34 33 32 30 29 27 27
24 25 25 25 27 28 28 27 26 28 30 32 35 37 40 41 42 45 47 49 51 52 52 52 53 52 52 51 51 50 51 52 51 48 47 47 46 45 43 42 41 38 36 35 33 32 31 29 28
22 22 22 23 25 26 26 24 24 27 28 29 31 33 36 38 40 42 44 46 49 51 51 51 52 52 52 52 51 51 51 52 52 50 49 49 48 47 46 44 42 41 39 37 35 34 33 32 31
20 21 21 22 24 24 24 22 23 24 26 27 27 28 30 33 35 39 42 44 46 48 49 50 52 54 53 52 50 51 52 53 53 52 51 50 49 48 47 46 44 43 41 39 38 37 36 34 33
18 19 19 20 21 21 21 21 20 21 23 24 25 27 28 30 32 34 37 40 44 47 47 48 50 52 53 53 53 54 53 54 54 53 52 51 51 49 49 48 46 45 43 42 40 39 38 37 36
16 16 16 16 17 18 18 19 19 19 21 22 23 25 27 28 30 32 35 36 41 44 46 48 50 50 50 52 54 54 55 54 55 55 53 52 52 51 49 49 48 47 45 43 43 42 41 39 38
12 12 12 12 13 13 13 14 15 17 18 19 20 23 25 26 26 28 32 34 36 40 43 45 48 48 48 48 50 52 54 55 55 56 54 53 53 52 51 50 50 49 47 46 45 44 43 42 42
8 9 9 9 10 10 10 10 11 13 14 16 17 17 20 23 26 26 28 30 33 37 39 41 43 44 45 46 48 50 51 53 55 56 55 55 54 55 54 52 51 50 49 47 46 46 45 44 45
6 7 7 7 8 7 8 8 8 10 11 13 14 15 16 19 22 24 25 27 30 33 36 39 40 40 40 42 45 46 48 48 51 53 54 54 54 55 54 53 52 52 51 49 48 48 47 47 47
5 5 5 5 5 6 6 7 6 8 10 11 12 13 13 14 17 18 20 23 26 29 32 34 36 38 38 39 43 45 46 48 50 51 53 54 54 55 55 54 53 52 51 50 49 49 49 48 48
4 4 4 4 4 4 5 6 6 6 8 8 9 10 11 12 13 14 15 18 21 26 30 31 31 33 35 37 39 43 45 45 47 49 49 51 52 53 54 54 54 53 53 53 52 50 50 49 49
3 3 4 3 3 4 5 6 7 7 6 6 7 8 9 9 9 11 13 15 17 20 24 26 27 29 32 34 35 39 43 43 43 45 47 48 49 50 52 54 53 52 52 52 52 52 51 51 50
2 2 3 2 2 4 4 6 7 7 6 6 7 7 6 6 6 7 9 10 13 16 19 21 22 26 29 31 33 35 38 41 41 44 46 47 48 48 50 52 53 53 52 53 54 52 51 51 51
1 1 1 1 2 3 5 5 6 5 5 6 7 7 5 5 4 4 6 7 9 12 15 17 19 22 26 29 31 32 34 37 40 42 45 47 48 48 48 50 51 52 52 53 54 55 53 52 51
1 1 1 1 3 4 5 5 6 5 4 5 5 5 4 4 3 3 3 4 6 9 11 14 17 20 22 25 28 31 32 33 35 39 41 44 46 47 48 49 50 52 53 53 52 54 55 55 54
1 1 2 2 3 4 4 5 5 6 6 5 4 4 4 3 3 3 3 3 5 6 8 10 13 17 18 21 24 28 31 33 34 36 39 41 44 45 47 48 49 51 52 53 53 52 53 55 55
1 2 3 3 2 3 4 4 4 6 6 5 5 4 4 4 4 4 3 3 2 3 5 7 10 13 16 18 20 24 28 31 33 35 38 41 44 46 45 45 46 47 50 51 52 52 53 54 55
Wind_Direction
260 260 259 259 259 259 259 260 259 258 256 255 253 251 248 247 247 247 246 244 244 244 243 242 241 241 242 241 240 239 238 237 236 235 236 237 239 243 247 249 251 255 258 261 266 266 266 268 267
262 261 261 260 260 260 260 260 259 257 256 254 253 251 247 246 246 245 245 244 243 242 242 240 240 240 240 241 240 239 238 237 237 237 237 238 239 241 244 247 248 251 255 259 262 264 264 265 265
264 263 262 261 261 261 261 259 258 256 255 253 252 250 246 245 245 244 243 243 242 241 241 240 239 239 238 239 240 239 238 237 238 238 238 239 239 241 243 245 247 248 252 256 258 261 261 262 263
265 264 263 262 262 262 262 260 258 256 254 253 251 249 245 244 243 242 241 242 242 240 240 240 238 238 238 238 239 239 238 237 238 238 239 239 240 240 242 244 246 247 249 253 255 258 259 259 260
267 266 264 264 264 263 262 261 258 256 253 252 251 248 244 243 242 241 240 240 240 240 239 239 239 238 237 237 237 238 238 238 238 238 238 239 240 240 241 243 245 246 248 251 253 256 257 258 259
269 268 267 266 265 264 262 260 258 256 253 252 251 248 245 242 241 239 239 238 239 239 239 238 238 238 237 236 236 236 237 238 238 238 238 239 239 240 240 242 244 245 247 250 252 254 255 256 259
272 270 269 268 266 264 261 259 257 256 252 251 250 248 244 242 241 238 237 238 238 238 238 238 237 238 238 237 236 236 236 237 237 237 238 239 239 239 240 241 243 245 246 248 251 253 254 255 258
273 273 271 269 267 264 261 258 257 255 251 250 249 247 244 242 241 239 237 236 237 238 238 238 238 238 238 238 237 236 235 237 237 237 237 238 239 240 240 241 243 244 246 248 250 252 253 255 257
274 274 273 270 266 263 260 259 257 254 251 250 249 248 244 241 240 239 237 236 236 237 238 238 238 238 238 238 237 236 236 236 236 237 237 238 239 240 240 240 242 244 246 248 250 252 253 254 256
275 275 273 270 266 263 261 260 257 253 251 251 249 248 244 241 239 238 237 236 236 236 237 237 237 238 239 239 237 236 235 236 236 237 237 237 238 239 240 240 241 243 245 248 250 252 254 254 255
275 274 271 268 265 263 263 260 257 256 252 250 248 246 244 239 239 237 235 235 235 235 236 237 237 237 238 239 238 236 235 235 235 236 237 237 237 239 240 240 241 242 245 247 249 251 253 254 254
275 273 271 269 266 264 262 260 259 256 253 250 247 244 242 239 238 236 235 234 234 234 234 235 236 237 237 238 238 236 235 234 235 236 237 237 237 238 239 240 241 242 244 246 248 250 252 254 255
274 271 270 269 268 266 265 263 262 259 254 251 248 245 241 240 239 236 234 233 234 234 234 235 235 235 235 237 237 236 234 234 235 235 236 236 237 238 238 239 241 242 244 246 248 250 252 254 256
275 272 271 270 269 268 268 266 265 261 256 252 250 246 241 241 239 236 234 233 233 234 233 234 234 233 234 235 234 233 233 234 234 234 235 236 237 238 238 239 241 242 244 246 248 251 252 254 256
274 272 271 269 269 269 268 265 263 260 258 255 252 248 243 242 239 235 234 233 233 234 234 234 235 235 234 233 233 233 233 233 233 233 234 236 237 238 239 239 240 241 243 245 248 251 252 253 256
273 271 270 270 269 269 268 264 264 262 259 255 251 248 245 242 236 236 236 234 234 233 232 233 234 233 233 233 233 233 232 232 232 233 234 236 236 237 238 239 240 241 242 244 247 249 251 253 254
271 271 272 272 269 268 268 267 263 263 258 254 251 248 245 241 239 237 237 236 234 233 231 233 233 233 233 233 234 233 233 232 233 233 234 235 235 235 237 237 239 241 243 244 246 249 251 252 254
274 274 274 272 267 267 268 269 268 265 258 255 254 249 245 243 241 240 240 240 237 233 232 233 234 233 232 234 235 234 234 232 232 233 233 233 234 235 236 237 238 240 243 243 245 247 250 252 253
278 276 276 272 267 266 266 269 268 267 263 258 255 249 245 244 240 241 241 240 237 235 236 234 233 233 233 233 234 235 235 234 233 233 232 232 232 234 235 237 238 240 242 244 245 248 250 252 253
281 278 276 270 269 270 272 273 272 273 270 268 260 252 251 248 249 246 245 241 238 236 235 234 235 234 233 233 234 234 235 234 233 233 233 233 233 234 235 237 237 238 240 243 246 248 250 252 253
282 279 278 271 268 275 276 271 269 272 272 270 265 261 260 256 253 253 252 245 241 238 237 235 234 232 232 234 234 234 234 234 233 233 234 235 235 234 236 238 238 239 241 243 246 248 250 251 253
288 286 279 271 270 276 278 277 270 272 276 275 272 268 270 263 256 255 254 250 246 240 237 234 236 235 234 234 233 235 235 233 232 232 233 234 235 235 236 238 240 240 241 243 246 248 249 250 252
294 292 286 281 277 280 286 289 281 275 279 278 277 276 270 269 266 259 257 254 248 242 238 237 237 237 238 236 233 234 234 235 234 234 234 235 236 236 237 239 240 241 242 243 244 246 249 250 252
290 287 297 282 279 284 291 298 303 295 295 290 286 285 277 271 264 262 262 258 252 247 243 241 239 239 239 237 236 238 235 237 237 235 234 235 236 238 239 241 242 242 243 244 244 246 248 250 252
290 286 292 288 293 311 304 307 316 312 314 313 302 296 281 273 266 261 262 258 253 248 244 245 242 240 239 239 241 240 237 238 238 236 234 235 237 239 241 242 242 243 245 244 244 244 248 250 252
314 304 299 299 318 325 318 323 325 318 313 320 314 307 278 270 269 260 261 262 255 250 248 247 245 244 243 243 242 240 241 241 239 237 235 235 236 239 241 242 243 244 244 245 245 245 246 249 251
318 324 322 300 317 329 334 345 350 329 318 317 309 308 296 271 276 276 264 261 256 251 251 251 250 248 246 246 245 241 242 243 242 239 237 236 237 239 241 242 244 244 245 245 244 245 245 247 249
352 355 345 300 304 326 336 341 353 357 344 332 325 310 303 296 302 304 302 280 276 267 255 256 257 255 253 249 246 244 246 244 242 240 239 239 239 241 243 244 245 246 246 246 246 246 247 247 248
96 23 6 336 311 319 334 339 348 355 352 349 343 344 339 330 320 320 328 305 297 281 269 265 259 255 252 250 249 248 248 244 245 245 242 241 241 242 246 246 247 247 247 247 247 248 248 248 249
93 33 19 6 2 356 357 357 359 1 1 2 8 19 30 30 2 352 354 350 320 299 287 279 276 268 257 254 255 254 250 248 248 248 245 242 242 243 246 246 246 248 249 249 249 250 251 251 251
Height
5789 5790 5791 5792 5792 5793 5795 5799 5801 5804 5806 5808 5811 5813 5817 5821 5825 5829 5831 5833 5835 5838 5841 5843 5846 5848 5851 5853 5856 5858 5861 5863 5865 5866 5868 5869 5870 5871 5872 5874 5875 5876 5877 5878 5878 5879 5879 5880 5880
5781 5781 5782 5782 5782 5783 5787 5790 5791 5794 5796 5799 5802 5805 5808 5812 5816 5820 5823 5826 5829 5832 5835 5838 5841 5843 5846 5849 5851 5854 5857 5859 5861 5863 5865 5866 5868 5869 5870 5872 5873 5874 5875 5876 5877 5877 5878 5879 5879
5772 5772 5773 5773 5773 5775 5778 5780 5781 5783 5786 5789 5791 5794 5799 5803 5808 5812 5816 5819 5823 5826 5829 5832 5835 5838 5841 5844 5847 5849 5852 5855 5857 5859 5862 5863 5865 5866 5868 5869 5871 5872 5873 5874 5875 5876 5876 5877 5878
5763 5763 5763 5764 5765 5767 5767 5769 5770 5772 5775 5778 5781 5784 5789 5794 5799 5804 5808 5812 5816 5820 5823 5826 5829 5832 5835 5838 5841 5844 5847 5850 5853 5855 5858 5860 5862 5864 5865 5867 5868 5870 5871 5872 5873 5874 5875 5876 5876
5754 5753 5753 5754 5756 5757 5757 5757 5758 5760 5763 5766 5769 5773 5779 5784 5789 5795 5800 5804 5808 5812 5816 5820 5823 5826 5829 5833 5836 5839 5842 5845 5848 5851 5853 5856 5858 5860 5862 5863 5865 5867 5868 5870 5871 5872 5873 5874 5874
5745 5744 5744 5744 5745 5745 5745 5745 5747 5748 5752 5755 5758 5762 5768 5774 5779 5785 5790 5795 5800 5804 5809 5813 5816 5820 5823 5826 5830 5833 5836 5840 5843 5846 5849 5851 5854 5856 5858 5860 5862 5864 5865 5867 5868 5869 5870 5871 5872
5736 5734 5734 5734 5734 5734 5735 5734 5736 5737 5741 5744 5747 5751 5758 5764 5768 5774 5780 5786 5791 5796 5801 5805 5809 5812 5816 5820 5824 5827 5831 5834 5837 5840 5844 5847 5850 5852 5854 5856 5858 5860 5862 5864 5865 5866 5868 5868 5869
5726 5726 5724 5724 5723 5724 5724 5724 5725 5727 5730 5733 5736 5741 5747 5753 5757 5763 5769 5776 5782 5787 5792 5797 5801 5805 5809 5813 5817 5821 5824 5828 5831 5835 5838 5842 5845 5848 5850 5853 5855 5857 5858 5860 5862 5863 5864 5866 5867
5717 5717 5715 5714 5713 5714 5715 5715 5716 5717 5720 5723 5726 5730 5736 5741 5746 5752 5759 5765 5772 5778 5783 5789 5793 5798 5802 5806 5810 5814 5818 5821 5825 5829 5832 5836 5839 5842 5845 5848 5850 5853 5855 5856 5858 5859 5861 5862 5863
5709 5708 5707 5705 5704 5705 5706 5706 5706 5708 5711 5713 5716 5720 5724 5729 5735 5741 5747 5754 5761 5768 5774 5779 5785 5789 5794 5798 5802 5807 5811 5814 5818 5822 5826 5830 5833 5837 5840 5843 5846 5848 5850 5852 5854 5856 5857 5858 5859
5700 5700 5698 5697 5696 5696 5697 5697 5697 5699 5701 5703 5706 5710 5713 5719 5724 5730 5736 5743 5750 5757 5763 5769 5775 5780 5785 5789 5794 5799 5803 5807 5811 5815 5819 5823 5827 5831 5834 5838 5841 5843 5846 5848 5850 5851 5853 5854 5855
5693 5691 5690 5689 5688 5688 5688 5688 5688 5690 5692 5693 5695 5699 5703 5708 5714 5719 5726 5733 5740 5746 5753 5759 5764 5770 5776 5780 5785 5790 5795 5799 5804 5808 5812 5816 5821 5825 5828 5832 5835 5838 5840 5843 5845 5847 5848 5850 5851
5685 5684 5683 5682 5681 5681 5680 5680 5680 5682 5682 5683 5685 5689 5694 5699 5704 5709 5715 5722 5729 5735 5742 5748 5754 5760 5766 5771 5776 5781 5786 5791 5796 5801 5805 5809 5814 5818 5822 5825 5829 5832 5835 5837 5839 5841 5843 5845 5846
5678 5678 5677 5676 5675 5674 5674 5674 5674 5675 5674 5675 5678 5681 5685 5689 5694 5699 5705 5712 5718 5724 5731 5737 5743 5750 5755 5761 5766 5771 5777 5782 5787 5792 5797 5801 5806 5811 5815 5818 5822 5825 5828 5831 5833 5836 5838 5839 5841
5672 5672 5671 5670 5669 5668 5668 5669 5669 5667 5667 5669 5671 5674 5677 5681 5685 5690 5696 5702 5708 5714 5720 5726 5732 5739 5745 5750 5756 5762 5767 5772 5778 5783 5788 5793 5798 5803 5807 5811 5815 5818 5821 5824 5827 5829 5832 5834 5836
5667 5667 5666 5665 5664 5663 5664 5665 5663 5660 5661 5663 5665 5667 5670 5673 5678 5682 5687 5693 5698 5704 5709 5716 5721 5727 5734 5740 5746 5752 5758 5763 5768 5774 5779 5784 5789 5794 5798 5803 5807 5810 5814 5817 5820 5823 5825 5828 5829
5662 5662 5661 5661 5659 5658 5658 5659 5658 5655 5656 5658 5660 5661 5663 5666 5670 5674 5679 5683 5688 5693 5699 5705 5711 5717 5723 5729 5735 5742 5748 5753 5758 5764 5769 5774 5780 5785 5790 5795 5799 5802 5806 5809 5812 5815 5818 5821 5823
5658 5658 5657 5655 5654 5653 5653 5654 5653 5651 5651 5653 5654 5656 5657 5660 5663 5666 5670 5674 5678 5683 5689 5695 5701 5707 5712 5718 5725 5731 5737 5742 5748 5754 5760 5765 5770 5775 5781 5785 5790 5794 5798 5801 5804 5808 5810 5813 5815
5654 5654 5653 5651 5649 5649 5650 5650 5649 5647 5647 5649 5649 5651 5653 5654 5656 5659 5663 5665 5669 5674 5680 5685 5691 5696 5702 5707 5714 5720 5727 5733 5739 5745 5750 5756 5761 5766 5771 5776 5780 5785 5789 5793 5796 5799 5802 5805 5807
5651 5650 5649 5648 5647 5646 5647 5647 5645 5644 5644 5645 5645 5647 5647 5648 5650 5652 5655 5658 5661 5666 5670 5675 5681 5686 5691 5697 5703 5709 5715 5722 5728 5734 5740 5745 5751 5756 5761 5766 5771 5776 5780 5783 5787 5790 5793 5796 5798
5648 5648 5647 5646 5645 5644 5644 5645 5643 5642 5641 5641 5642 5642 5643 5644 5645 5646 5648 5651 5654 5658 5661 5666 5671 5677 5682 5687 5692 5697 5703 5710 5716 5723 5729 5735 5740 5746 5752 5757 5762 5766 5770 5774 5778 5781 5784 5786 5788
5647 5646 5645 5644 5643 5643 5643 5642 5642 5641 5640 5639 5638 5638 5639 5639 5639 5640 5642 5645 5648 5651 5654 5658 5663 5668 5673 5678 5683 5688 5693 5700 5706 5713 5719 5724 5729 5735 5741 5746 5751 5756 5760 5764 5767 5770 5773 5776 5778
5645 5644 5643 5643 5642 5642 5641 5640 5641 5639 5638 5637 5636 5635 5635 5634 5635 5636 5637 5639 5641 5644 5648 5652 5656 5661 5665 5670 5674 5679 5684 5691 5696 5702 5708 5713 5719 5724 5730 5735 5740 5745 5749 5753 5756 5759 5762 5765 5768
5644 5644 5643 5642 5641 5642 5640 5639 5639 5637 5636 5634 5633 5632 5631 5631 5632 5632 5633 5635 5636 5638 5641 5645 5649 5654 5658 5662 5666 5670 5675 5681 5686 5691 5697 5703 5708 5713 5718 5723 5728 5733 5737 5742 5745 5748 5751 5754 5757
5643 5643 5643 5642 5641 5641 5640 5638 5638 5635 5634 5632 5631 5630 5629 5629 5629 5629 5630 5630 5631 5633 5635 5639 5642 5646 5650 5654 5658 5661 5666 5670 5675 5681 5687 5693 5698 5702 5707 5712 5717 5721 5725 5729 5733 5736 5740 5742 5745
5642 5643 5643 5642 5641 5640 5639 5638 5638 5635 5633 5631 5630 5629 5628 5627 5627 5626 5626 5627 5627 5628 5630 5633 5636 5639 5643 5646 5649 5653 5657 5661 5666 5671 5677 5683 5688 5692 5696 5700 5705 5709 5713 5717 5720 5723 5727 5730 5733
5642 5642 5642 5642 5641 5640 5639 5638 5637 5634 5633 5631 5630 5628 5627 5626 5625 5624 5624 5624 5625 5626 5627 5628 5631 5634 5636 5639 5642 5646 5650 5654 5657 5662 5666 5672 5677 5681 5685 5689 5693 5697 5701 5704 5707 5711 5715 5718 5721
5643 5642 5642 5642 5641 5640 5639 5638 5637 5634 5633 5631 5630 5628 5627 5626 5625 5623 5623 5622 5623 5623 5624 5625 5627 5629 5631 5633 5636 5639 5643 5646 5649 5652 5656 5661 5666 5670 5674 5677 5681 5685 5689 5692 5695 5699 5702 5706 5709
5643 5643 5642 5641 5641 5640 5639 5640 5637 5635 5633 5631 5630 5629 5627 5625 5624 5623 5622 5621 5621 5621 5622 5623 5624 5625 5626 5627 5629 5632 5635 5638 5640 5643 5647 5651 5655 5659 5663 5666 5670 5673 5677 5680 5684 5687 5690 5693 5696
5643 5643 5642 5642 5641 5640 5639 5642 5637 5635 5633 5631 5630 5629 5627 5626 5624 5623 5622 5621 5620 5620 5620 5620 5620 5620 5621 5622 5623 5625 5627 5629 5631 5634 5637 5640 5644 5648 5651 5655 5658 5662 5665 5668 5671 5675 5677 5680 5682